WXM80 ListenWXM80 Stop

You find our weather info also at:

UK Metoffice

WeatherCloud

Weather Underground

Northeastern Weather Network

AWEKAS

Citizen Weather Observer Program (CWOP)

HAMweather, WeatherForYou, PWS Weather


Weather Underground History page Text

Daily Summary for October 22, 2017 Units:  English    Metric   Both
« Previous Day
Next Day »
Daily Weekly Monthly Yearly Custom
  High: Low: Average:
Temperature: 76.6 °F 49.7 °F 61.5 °F
Dew Point: 63.7 °F 47.2 °F 53.6 °F
Humidity: 98 % 43 % 78 %
Wind Speed: 4.3 mph 0.0 mph 0.4 mph
Wind Gust: 6.9 mph - -
Wind:- - SE
Pressure: 30.40 in 30.33 in -
Precipitation: 0.00 in    
Historical Graphs
 
 
Tabular Data for October 22, 2017
Time Temperature Dew Point Pressure Wind Wind Speed Wind Gust Humidity Rainfall Rate (Hourly)
00:03 61.0 °F 52.7 °F 30.33 in WSW 2.1 mph 3.5 mph 74 % 0.00 in
00:06 60.9 °F 52.6 °F 30.33 in WSW 2.1 mph 3.5 mph 74 % 0.00 in
00:11 60.8 °F 52.5 °F 30.33 in WSW 0.9 mph 3.5 mph 74 % 0.00 in
00:16 60.7 °F 52.4 °F 30.33 in WSW 0.3 mph 1.2 mph 74 % 0.00 in
00:21 60.7 °F 52.4 °F 30.33 in Calm   3.5 mph 74 % 0.00 in
00:26 60.6 °F 52.3 °F 30.33 in WSW 1.5 mph 3.5 mph 74 % 0.00 in
00:31 60.5 °F 52.2 °F 30.33 in Calm   2.3 mph 74 % 0.00 in
00:36 60.5 °F 51.8 °F 30.34 in WSW 0.4 mph 1.2 mph 73 % 0.00 in
00:41 60.4 °F 51.7 °F 30.33 in WSW 0.4 mph 3.5 mph 73 % 0.00 in
00:47 60.3 °F 51.6 °F 30.34 in WSW 0.8 mph 3.5 mph 73 % 0.00 in
00:51 60.2 °F 51.5 °F 30.33 in SW 0.1 mph 3.5 mph 73 % 0.00 in
00:57 60.1 °F 51.8 °F 30.33 in West 1.8 mph 3.5 mph 74 % 0.00 in
01:02 60.0 °F 51.3 °F 30.33 in WSW 2.4 mph 4.6 mph 73 % 0.00 in
01:07 59.9 °F 51.2 °F 30.33 in Calm     73 % 0.00 in
01:12 59.8 °F 51.5 °F 30.33 in Calm   1.2 mph 74 % 0.00 in
01:17 59.7 °F 51.4 °F 30.33 in Calm     74 % 0.00 in
01:22 59.5 °F 51.6 °F 30.36 in Calm     75 % 0.00 in
01:27 59.3 °F 51.4 °F 30.33 in Calm     75 % 0.00 in
01:32 59.1 °F 51.2 °F 30.33 in Calm   1.2 mph 75 % 0.00 in
01:37 58.9 °F 51.0 °F 30.33 in Calm     75 % 0.00 in
01:42 58.6 °F 51.1 °F 30.34 in Calm     76 % 0.00 in
01:44 58.5 °F 51.0 °F 30.34 in Calm     76 % 0.00 in
01:49 58.2 °F 50.7 °F 30.33 in Calm     76 % 0.00 in
01:54 57.9 °F 50.7 °F 30.33 in Calm     77 % 0.00 in
01:59 57.5 °F 50.3 °F 30.33 in Calm     77 % 0.00 in
02:04 57.2 °F 50.1 °F 30.33 in Calm     77 % 0.00 in
02:09 56.9 °F 50.1 °F 30.33 in WSW 0.2 mph 1.2 mph 78 % 0.00 in
02:14 56.7 °F 49.9 °F 30.33 in Calm     78 % 0.00 in
02:19 56.4 °F 50.0 °F 30.33 in Calm     79 % 0.00 in
02:24 56.2 °F 49.8 °F 30.34 in Calm     79 % 0.00 in
02:29 56.0 °F 49.6 °F 30.33 in Calm   1.2 mph 79 % 0.00 in
02:35 55.7 °F 49.6 °F 30.33 in WSW 0.1 mph 1.2 mph 80 % 0.00 in
02:40 55.5 °F 49.4 °F 30.33 in Calm     80 % 0.00 in
02:45 55.3 °F 49.6 °F 30.33 in Calm   1.2 mph 81 % 0.00 in
02:50 55.1 °F 49.4 °F 30.33 in Calm     81 % 0.00 in
02:53 55.0 °F 49.6 °F 30.33 in Calm     82 % 0.00 in
02:55 54.9 °F 49.5 °F 30.33 in Calm     82 % 0.00 in
03:00 54.7 °F 49.3 °F 30.33 in Calm     82 % 0.00 in
03:05 54.6 °F 49.2 °F 30.33 in WSW 0.1 mph 1.2 mph 82 % 0.00 in
03:10 54.4 °F 49.3 °F 30.33 in WSW 0.5 mph 1.2 mph 83 % 0.00 in
03:15 54.3 °F 49.2 °F 30.33 in WSW 0.3 mph 1.2 mph 83 % 0.00 in
03:20 54.1 °F 49.1 °F 30.34 in Calm     83 % 0.00 in
03:25 54.0 °F 49.0 °F 30.34 in Calm     83 % 0.00 in
03:30 53.8 °F 48.8 °F 30.34 in Calm     83 % 0.00 in
03:36 53.7 °F 49.0 °F 30.34 in Calm     84 % 0.00 in
03:41 53.5 °F 48.8 °F 30.34 in Calm     84 % 0.00 in
03:46 53.4 °F 48.7 °F 30.34 in Calm     84 % 0.00 in
03:51 53.2 °F 48.5 °F 30.34 in Calm   1.0 mph 84 % 0.00 in
03:55 53.0 °F 48.6 °F 30.34 in WSW 0.3 mph 1.2 mph 85 % 0.00 in
04:00 52.9 °F 48.5 °F 30.34 in WSW 0.5 mph 1.2 mph 85 % 0.00 in
04:06 52.8 °F 48.7 °F 30.34 in Calm   1.0 mph 86 % 0.00 in
04:10 52.6 °F 48.5 °F 30.34 in Calm     86 % 0.00 in
04:15 52.5 °F 48.4 °F 30.34 in Calm   1.2 mph 86 % 0.00 in
04:21 52.4 °F 48.3 °F 30.34 in WSW 0.4 mph 1.0 mph 86 % 0.00 in
04:25 52.3 °F 48.5 °F 30.34 in Calm     87 % 0.00 in
04:31 52.2 °F 48.1 °F 30.34 in Calm     86 % 0.00 in
04:36 52.1 °F 48.3 °F 30.34 in Calm     87 % 0.00 in
04:41 52.0 °F 48.6 °F 30.34 in Calm     88 % 0.00 in
04:46 51.9 °F 48.5 °F 30.34 in Calm   1.0 mph 88 % 0.00 in
04:51 51.9 °F 48.5 °F 30.34 in Calm   1.0 mph 88 % 0.00 in
04:56 51.8 °F 48.7 °F 30.35 in Calm   1.0 mph 89 % 0.00 in
05:01 51.7 °F 48.6 °F 30.35 in Calm     89 % 0.00 in
05:06 51.6 °F 48.2 °F 30.35 in Calm     88 % 0.00 in
05:11 51.5 °F 48.1 °F 30.35 in Calm   1.2 mph 88 % 0.00 in
05:16 51.4 °F 48.3 °F 30.36 in Calm   1.2 mph 89 % 0.00 in
05:21 51.4 °F 48.3 °F 30.35 in Calm     89 % 0.00 in
05:26 51.3 °F 48.2 °F 30.35 in Calm     89 % 0.00 in
05:31 51.3 °F 48.2 °F 30.35 in Calm     89 % 0.00 in
05:36 51.2 °F 48.4 °F 30.36 in Calm   1.2 mph 90 % 0.00 in
05:41 51.2 °F 48.4 °F 30.36 in Calm     90 % 0.00 in
05:46 51.1 °F 48.3 °F 30.35 in Calm     90 % 0.00 in
05:51 51.0 °F 48.2 °F 30.35 in WSW 0.2 mph   90 % 0.00 in
05:56 51.0 °F 48.2 °F 30.35 in Calm     90 % 0.00 in
06:01 50.9 °F 47.8 °F 30.36 in WSW 0.1 mph 1.2 mph 89 % 0.00 in
06:07 50.8 °F 48.0 °F 30.36 in Calm     90 % 0.00 in
06:12 50.7 °F 47.9 °F 30.36 in Calm     90 % 0.00 in
06:17 50.7 °F 47.9 °F 30.36 in Calm     90 % 0.00 in
06:22 50.6 °F 47.8 °F 30.36 in WSW 0.2 mph 1.2 mph 90 % 0.00 in
06:27 50.5 °F 47.7 °F 30.36 in WSW 0.1 mph 1.2 mph 90 % 0.00 in
06:37 50.4 °F 47.9 °F 30.36 in Calm     91 % 0.00 in
06:42 50.3 °F 47.8 °F 30.36 in Calm     91 % 0.00 in
06:47 50.3 °F 47.5 °F 30.36 in WSW 0.2 mph 1.0 mph 90 % 0.00 in
06:52 50.2 °F 47.4 °F 30.36 in Calm   1.2 mph 90 % 0.00 in
06:57 50.1 °F 47.6 °F 30.36 in Calm   1.2 mph 91 % 0.00 in
07:02 50.0 °F 47.5 °F 30.36 in WSW 0.2 mph 1.2 mph 91 % 0.00 in
07:07 50.0 °F 47.5 °F 30.36 in Calm     91 % 0.00 in
07:12 49.9 °F 47.4 °F 30.36 in WSW 0.1 mph 1.2 mph 91 % 0.00 in
07:17 49.9 °F 47.4 °F 30.37 in Calm     91 % 0.00 in
07:27 49.8 °F 47.3 °F 30.36 in Calm     91 % 0.00 in
07:32 49.7 °F 47.2 °F 30.37 in Calm   1.0 mph 91 % 0.00 in
07:37 49.7 °F 47.5 °F 30.37 in Calm     92 % 0.00 in
07:42 49.8 °F 47.6 °F 30.37 in Calm     92 % 0.00 in
07:47 49.9 °F 48.0 °F 30.38 in WSW 0.2 mph 1.0 mph 93 % 0.00 in
07:52 49.9 °F 48.0 °F 30.38 in Calm     93 % 0.00 in
07:57 50.1 °F 48.2 °F 30.38 in Calm     93 % 0.00 in
08:02 50.1 °F 48.4 °F 30.38 in Calm     94 % 0.00 in
08:03 50.2 °F 48.5 °F 30.38 in Calm     94 % 0.00 in
08:08 50.3 °F 48.6 °F 30.39 in Calm     94 % 0.00 in
08:14 50.5 °F 48.8 °F 30.39 in Calm     94 % 0.00 in
08:19 50.7 °F 49.0 °F 30.39 in Calm     94 % 0.00 in
08:24 50.9 °F 49.5 °F 30.39 in Calm     95 % 0.00 in
08:29 51.1 °F 49.7 °F 30.39 in Calm     95 % 0.00 in
08:34 51.4 °F 50.0 °F 30.39 in Calm     95 % 0.00 in
08:39 51.8 °F 50.7 °F 30.40 in Calm     96 % 0.00 in
08:44 52.1 °F 51.0 °F 30.40 in Calm     96 % 0.00 in
08:49 52.5 °F 51.4 °F 30.39 in Calm     96 % 0.00 in
08:54 53.1 °F 52.0 °F 30.39 in Calm     96 % 0.00 in
09:04 54.2 °F 53.4 °F 30.40 in Calm     97 % 0.00 in
09:09 54.7 °F 53.9 °F 30.40 in Calm     97 % 0.00 in
09:14 55.3 °F 54.5 °F 30.40 in Calm     97 % 0.00 in
09:19 56.0 °F 55.2 °F 30.40 in NE 1.2 mph 2.3 mph 97 % 0.00 in
09:24 56.7 °F 55.9 °F 30.40 in NE 0.3 mph 1.2 mph 97 % 0.00 in
09:29 57.3 °F 56.7 °F 30.40 in Calm   1.2 mph 98 % 0.00 in
09:34 57.8 °F 57.2 °F 30.40 in NE 0.4 mph 2.0 mph 98 % 0.00 in
09:39 58.3 °F 57.7 °F 30.40 in NE 1.0 mph 2.3 mph 98 % 0.00 in
09:44 58.7 °F 58.1 °F 30.40 in Calm   1.2 mph 98 % 0.00 in
09:49 59.1 °F 58.5 °F 30.40 in Calm   1.2 mph 98 % 0.00 in
09:54 59.4 °F 58.5 °F 30.40 in Calm     97 % 0.00 in
09:55 59.5 °F 58.6 °F 30.40 in Calm     97 % 0.00 in
10:00 60.0 °F 59.4 °F 30.40 in Calm     98 % 0.00 in
10:05 60.6 °F 60.0 °F 30.40 in Calm     98 % 0.00 in
10:10 61.1 °F 60.5 °F 30.40 in Calm     98 % 0.00 in
10:15 61.6 °F 61.0 °F 30.39 in ENE 0.3 mph 2.3 mph 98 % 0.00 in
10:20 62.0 °F 61.1 °F 30.40 in NNE 0.5 mph 3.0 mph 97 % 0.00 in
10:25 62.3 °F 61.4 °F 30.40 in NNE 0.9 mph 2.3 mph 97 % 0.00 in
10:26 62.4 °F 61.5 °F 30.40 in NNE 0.9 mph 2.3 mph 97 % 0.00 in
10:31 62.7 °F 61.5 °F 30.39 in ENE 1.5 mph 3.5 mph 96 % 0.00 in
10:36 63.0 °F 61.5 °F 30.39 in ENE 0.3 mph 1.2 mph 95 % 0.00 in
10:41 63.4 °F 61.6 °F 30.40 in ENE 0.1 mph 3.5 mph 94 % 0.00 in
10:46 63.7 °F 61.6 °F 30.39 in ENE 0.9 mph 2.3 mph 93 % 0.00 in
10:51 64.0 °F 61.3 °F 30.39 in ENE 0.2 mph 1.2 mph 91 % 0.00 in
10:56 64.3 °F 61.3 °F 30.39 in Calm     90 % 0.00 in
11:01 64.7 °F 61.4 °F 30.39 in Calm     89 % 0.00 in
11:06 65.1 °F 61.1 °F 30.39 in ENE 0.1 mph 1.2 mph 87 % 0.00 in
11:11 65.6 °F 60.6 °F 30.39 in SE 0.9 mph 3.5 mph 84 % 0.00 in
11:16 66.3 °F 61.0 °F 30.38 in Calm     83 % 0.00 in
11:21 67.6 °F 62.6 °F 30.38 in NNE 1.7 mph 3.0 mph 84 % 0.00 in
11:26 68.6 °F 61.8 °F 30.38 in North 3.2 mph 3.5 mph 79 % 0.00 in
11:31 69.9 °F 63.1 °F 30.38 in North 0.5 mph 1.2 mph 79 % 0.00 in
11:36 71.5 °F 62.8 °F 30.38 in NE 0.7 mph 2.3 mph 74 % 0.00 in
11:41 72.7 °F 62.8 °F 30.38 in NNE 2.0 mph 3.5 mph 71 % 0.00 in
11:46 73.6 °F 63.6 °F 30.38 in North 3.7 mph 4.6 mph 71 % 0.00 in
11:51 74.5 °F 63.7 °F 30.38 in North 2.2 mph 3.5 mph 69 % 0.00 in
11:56 75.3 °F 63.2 °F 30.38 in North 3.2 mph 4.6 mph 66 % 0.00 in
12:01 75.9 °F 62.8 °F 30.38 in ENE 2.7 mph 3.5 mph 64 % 0.00 in
12:06 76.1 °F 63.0 °F 30.38 in NNE 2.0 mph 3.5 mph 64 % 0.00 in
12:11 76.5 °F 62.5 °F 30.38 in North 2.9 mph 4.6 mph 62 % 0.00 in
12:17 76.6 °F 62.6 °F 30.38 in NNE 4.3 mph 5.8 mph 62 % 0.00 in
12:22 76.6 °F 63.1 °F 30.38 in NE 2.2 mph 3.5 mph 63 % 0.00 in
12:27 76.4 °F 63.3 °F 30.38 in NNE 2.6 mph 5.8 mph 64 % 0.00 in
12:32 76.1 °F 63.0 °F 30.38 in North 3.5 mph 5.8 mph 64 % 0.00 in
12:37 75.9 °F 62.8 °F 30.38 in ENE 1.2 mph 3.5 mph 64 % 0.00 in
12:42 75.7 °F 61.3 °F 30.38 in NNE 0.5 mph 2.3 mph 61 % 0.00 in
12:47 75.5 °F 60.6 °F 30.38 in NE 2.0 mph 3.5 mph 60 % 0.00 in
12:52 75.4 °F 61.0 °F 30.37 in NNE 2.0 mph 3.5 mph 61 % 0.00 in
12:57 75.5 °F 62.0 °F 30.37 in NNE 0.5 mph 1.2 mph 63 % 0.00 in
13:02 75.8 °F 61.8 °F 30.37 in NNE 2.8 mph 3.5 mph 62 % 0.00 in
13:07 76.0 °F 62.0 °F 30.37 in NE 3.4 mph 3.5 mph 62 % 0.00 in
13:12 76.1 °F 61.2 °F 30.37 in ENE 1.4 mph 2.3 mph 60 % 0.00 in
13:17 76.2 °F 62.7 °F 30.37 in North 1.5 mph 3.5 mph 63 % 0.00 in
13:22 76.2 °F 61.8 °F 30.36 in NE 1.9 mph 3.5 mph 61 % 0.00 in
13:27 76.0 °F 63.4 °F 30.36 in North 0.7 mph 3.5 mph 65 % 0.00 in
13:32 75.9 °F 61.5 °F 30.37 in Calm   2.3 mph 61 % 0.00 in
13:38 75.9 °F 62.4 °F 30.36 in NE 0.8 mph 3.5 mph 63 % 0.00 in
13:43 75.8 °F 62.3 °F 30.36 in NE 2.9 mph 4.0 mph 63 % 0.00 in
13:48 75.8 °F 62.3 °F 30.35 in NE 0.1 mph 1.2 mph 63 % 0.00 in
13:53 76.0 °F 62.9 °F 30.35 in NNE 0.1 mph 2.3 mph 64 % 0.00 in
13:58 75.8 °F 61.4 °F 30.35 in ESE 0.8 mph 3.5 mph 61 % 0.00 in
14:03 75.7 °F 62.2 °F 30.35 in SSW 0.6 mph 2.3 mph 63 % 0.00 in
14:08 75.5 °F 57.2 °F 30.35 in SSW 0.2 mph 1.2 mph 53 % 0.00 in
14:13 75.5 °F 55.6 °F 30.35 in SSW 2.3 mph 3.5 mph 50 % 0.00 in
14:18 75.6 °F 55.6 °F 30.35 in Calm   1.2 mph 50 % 0.00 in
14:23 75.8 °F 54.7 °F 30.35 in SE 1.0 mph 5.0 mph 48 % 0.00 in
14:28 75.9 °F 55.9 °F 30.35 in Calm   1.0 mph 50 % 0.00 in
14:33 76.0 °F 54.3 °F 30.35 in SW 2.3 mph 3.5 mph 47 % 0.00 in
14:38 76.1 °F 52.0 °F 30.34 in SSW 0.7 mph 3.5 mph 43 % 0.00 in
14:43 76.1 °F 54.4 °F 30.34 in SSW 0.3 mph 2.3 mph 47 % 0.00 in
14:54 75.6 °F 53.4 °F 30.34 in SE 1.6 mph 6.9 mph 46 % 0.00 in
14:59 75.4 °F 54.3 °F 30.34 in SE 0.3 mph 2.0 mph 48 % 0.00 in
15:04 75.4 °F 54.9 °F 30.34 in Calm   1.2 mph 49 % 0.00 in
15:09 75.4 °F 52.6 °F 30.34 in South 1.4 mph 3.5 mph 45 % 0.00 in
15:14 75.3 °F 53.7 °F 30.34 in South 0.2 mph 1.2 mph 47 % 0.00 in
15:19 75.3 °F 53.1 °F 30.34 in SE 1.6 mph 4.6 mph 46 % 0.00 in
15:24 75.0 °F 51.6 °F 30.35 in SSE 2.0 mph 3.5 mph 44 % 0.00 in
15:29 74.7 °F 53.1 °F 30.35 in Calm     47 % 0.00 in
15:34 74.5 °F 51.8 °F 30.35 in SW 2.1 mph 4.6 mph 45 % 0.00 in
15:39 74.2 °F 52.1 °F 30.35 in Calm     46 % 0.00 in
15:44 74.0 °F 52.5 °F 30.35 in SE 0.4 mph 3.0 mph 47 % 0.00 in
15:49 73.8 °F 52.9 °F 30.35 in Calm   1.0 mph 48 % 0.00 in
15:54 73.5 °F 50.9 °F 30.35 in Calm     45 % 0.00 in
15:59 73.3 °F 51.8 °F 30.35 in Calm   1.2 mph 47 % 0.00 in
16:04 73.2 °F 52.3 °F 30.35 in SE 0.1 mph 1.0 mph 48 % 0.00 in
16:09 72.9 °F 51.5 °F 30.35 in Calm     47 % 0.00 in
16:15 72.7 °F 51.9 °F 30.35 in Calm     48 % 0.00 in
16:20 72.5 °F 52.2 °F 30.35 in SE 0.2 mph 1.0 mph 49 % 0.00 in
16:25 72.3 °F 52.1 °F 30.35 in SE 1.5 mph 3.0 mph 49 % 0.00 in
16:30 72.1 °F 53.5 °F 30.35 in SE 0.1 mph 1.2 mph 52 % 0.00 in
16:35 71.9 °F 52.8 °F 30.35 in SE 0.1 mph 1.2 mph 51 % 0.00 in
16:40 71.6 °F 53.0 °F 30.35 in Calm   2.3 mph 52 % 0.00 in
16:45 71.3 °F 52.8 °F 30.35 in Calm   2.3 mph 52 % 0.00 in
16:50 71.0 °F 52.5 °F 30.35 in SE 0.2 mph 3.5 mph 52 % 0.00 in
16:55 70.6 °F 53.6 °F 30.35 in Calm     55 % 0.00 in
17:00 70.4 °F 53.0 °F 30.35 in Calm   3.5 mph 54 % 0.00 in
17:05 70.2 °F 53.8 °F 30.35 in SE 0.1 mph 2.0 mph 56 % 0.00 in
17:10 70.0 °F 52.6 °F 30.34 in SE 0.2 mph 3.5 mph 54 % 0.00 in
17:15 69.8 °F 52.9 °F 30.34 in Calm   1.2 mph 55 % 0.00 in
17:20 69.6 °F 52.2 °F 30.34 in Calm   1.0 mph 54 % 0.00 in
17:25 69.3 °F 52.4 °F 30.34 in Calm     55 % 0.00 in
17:30 69.2 °F 52.8 °F 30.34 in Calm   1.2 mph 56 % 0.00 in
17:35 68.9 °F 53.0 °F 30.34 in SE 0.2 mph 2.0 mph 57 % 0.00 in
17:40 68.7 °F 53.3 °F 30.34 in Calm     58 % 0.00 in
17:45 68.5 °F 53.1 °F 30.34 in SE 0.3 mph 1.0 mph 58 % 0.00 in
17:50 68.2 °F 52.9 °F 30.34 in Calm     58 % 0.00 in
17:51 68.1 °F 52.8 °F 30.34 in SE 0.1 mph 1.2 mph 58 % 0.00 in
17:56 67.9 °F 53.0 °F 30.34 in Calm     59 % 0.00 in
18:01 67.7 °F 53.3 °F 30.34 in Calm     60 % 0.00 in
18:06 67.5 °F 53.6 °F 30.34 in Calm     61 % 0.00 in
18:12 67.3 °F 53.8 °F 30.34 in Calm     62 % 0.00 in
18:17 66.9 °F 53.5 °F 30.34 in Calm     62 % 0.00 in
18:22 66.6 °F 53.6 °F 30.35 in Calm     63 % 0.00 in
18:27 66.1 °F 53.6 °F 30.35 in Calm   1.2 mph 64 % 0.00 in
18:32 65.8 °F 53.7 °F 30.36 in Calm     65 % 0.00 in
18:37 65.4 °F 53.7 °F 30.35 in Calm     66 % 0.00 in
18:47 64.8 °F 53.6 °F 30.36 in Calm     67 % 0.00 in
18:52 64.5 °F 53.7 °F 30.36 in Calm     68 % 0.00 in
18:57 64.1 °F 53.7 °F 30.36 in Calm     69 % 0.00 in
19:02 63.8 °F 53.4 °F 30.36 in Calm     69 % 0.00 in
19:07 63.5 °F 53.5 °F 30.36 in Calm     70 % 0.00 in
19:12 63.1 °F 53.9 °F 30.36 in Calm     72 % 0.00 in
19:17 62.7 °F 53.5 °F 30.36 in Calm     72 % 0.00 in
19:22 62.3 °F 53.5 °F 30.36 in Calm     73 % 0.00 in
19:27 61.9 °F 53.5 °F 30.36 in Calm     74 % 0.00 in
19:32 61.6 °F 53.6 °F 30.35 in Calm     75 % 0.00 in
19:38 61.3 °F 54.0 °F 30.35 in Calm   1.2 mph 77 % 0.00 in
19:43 60.9 °F 53.6 °F 30.35 in Calm   1.2 mph 77 % 0.00 in
19:48 60.7 °F 53.8 °F 30.36 in SE 0.2 mph 1.2 mph 78 % 0.00 in
19:53 60.4 °F 53.9 °F 30.35 in Calm   1.2 mph 79 % 0.00 in
19:58 60.2 °F 54.0 °F 30.36 in Calm     80 % 0.00 in
20:03 59.9 °F 54.1 °F 30.36 in Calm     81 % 0.00 in
20:08 59.7 °F 53.9 °F 30.36 in Calm     81 % 0.00 in
20:13 59.5 °F 53.7 °F 30.36 in SE 0.1 mph 1.2 mph 81 % 0.00 in
20:18 59.3 °F 53.5 °F 30.36 in Calm   1.2 mph 81 % 0.00 in
20:24 59.1 °F 53.6 °F 30.36 in SE 0.1 mph   82 % 0.00 in
20:29 58.9 °F 53.7 °F 30.36 in Calm     83 % 0.00 in
20:34 58.8 °F 54.0 °F 30.36 in Calm     84 % 0.00 in
20:36 58.8 °F 54.3 °F 30.36 in Calm     85 % 0.00 in
20:41 58.7 °F 54.2 °F 30.36 in Calm     85 % 0.00 in
20:46 58.5 °F 54.0 °F 30.36 in Calm     85 % 0.00 in
20:51 58.4 °F 53.9 °F 30.36 in Calm     85 % 0.00 in
20:56 58.2 °F 54.0 °F 30.36 in SE 1.0 mph 2.3 mph 86 % 0.00 in
21:01 58.1 °F 53.9 °F 30.36 in SE 0.8 mph 2.3 mph 86 % 0.00 in
21:06 57.9 °F 53.7 °F 30.36 in SE 0.6 mph 1.2 mph 86 % 0.00 in
21:11 57.7 °F 53.5 °F 30.36 in SE 0.1 mph 1.2 mph 86 % 0.00 in
21:16 57.6 °F 53.4 °F 30.36 in SE 0.1 mph 1.2 mph 86 % 0.00 in
21:21 57.5 °F 53.7 °F 30.37 in SE 0.3 mph 1.2 mph 87 % 0.00 in
21:26 57.4 °F 53.6 °F 30.36 in Calm   1.2 mph 87 % 0.00 in
21:31 57.4 °F 54.2 °F 30.36 in SE 0.1 mph 1.2 mph 89 % 0.00 in
21:37 57.4 °F 54.2 °F 30.36 in Calm   1.2 mph 89 % 0.00 in
21:42 57.3 °F 54.4 °F 30.37 in Calm     90 % 0.00 in
21:47 57.3 °F 54.4 °F 30.36 in Calm     90 % 0.00 in
21:52 57.3 °F 54.4 °F 30.36 in Calm     90 % 0.00 in
21:57 57.3 °F 54.4 °F 30.36 in Calm   1.2 mph 90 % 0.00 in
22:02 57.3 °F 54.7 °F 30.36 in Calm     91 % 0.00 in
22:07 57.3 °F 54.7 °F 30.36 in Calm     91 % 0.00 in
22:12 57.3 °F 55.0 °F 30.37 in Calm     92 % 0.00 in
22:17 57.3 °F 55.0 °F 30.37 in Calm     92 % 0.00 in
22:22 57.3 °F 55.0 °F 30.37 in Calm     92 % 0.00 in
22:27 57.3 °F 55.0 °F 30.37 in Calm     92 % 0.00 in
22:32 57.3 °F 55.0 °F 30.37 in Calm     92 % 0.00 in
22:37 57.3 °F 55.0 °F 30.37 in Calm     92 % 0.00 in
22:42 57.2 °F 54.9 °F 30.38 in Calm     92 % 0.00 in
22:47 57.2 °F 54.9 °F 30.37 in Calm     92 % 0.00 in
22:52 57.1 °F 54.8 °F 30.37 in SE 0.1 mph 1.2 mph 92 % 0.00 in
22:57 57.0 °F 54.4 °F 30.37 in Calm   1.2 mph 91 % 0.00 in
23:03 57.0 °F 54.4 °F 30.37 in Calm     91 % 0.00 in
23:08 56.9 °F 54.6 °F 30.36 in Calm     92 % 0.00 in
23:13 56.9 °F 54.6 °F 30.37 in SE 0.2 mph 1.2 mph 92 % 0.00 in
23:18 56.8 °F 54.5 °F 30.37 in Calm   1.2 mph 92 % 0.00 in
23:24 56.8 °F 54.5 °F 30.37 in SE 0.2 mph   92 % 0.00 in
23:29 56.7 °F 54.4 °F 30.37 in SE 0.1 mph 1.2 mph 92 % 0.00 in
23:34 56.7 °F 54.4 °F 30.37 in Calm     92 % 0.00 in
23:39 56.7 °F 54.4 °F 30.36 in Calm     92 % 0.00 in
23:44 56.6 °F 54.3 °F 30.36 in Calm     92 % 0.00 in
23:48 56.6 °F 54.3 °F 30.37 in Calm   1.2 mph 92 % 0.00 in
23:53 56.6 °F 54.3 °F 30.36 in Calm     92 % 0.00 in
23:58 56.5 °F 54.5 °F 30.36 in Calm     93 % 0.00 in
Crab Meadow Weather
Compliments of Weather Underground - 3 mb

Script developed by  Jim McMurry - jmcmurry@mwt.net Adapted for the template by  Wim van der Kuil - Leuven-Template.eu

Extremes: The greatest annual rainfall in the United States was 184.56 inches at Wynooches, Oxbow, Washington in 1931.